Regional Weather Roundup
Issued by NWS

Home | Current Version | Previous Version | Graphics & Text | Print | Product List | Glossary On
Versions: 1 2 3 4 5 6 7 8 9 10 11 12 13 14 15 16 17 18 19 20 21 22 23 24 25 26 27 28 29 30 31 32 33 34 35 36 37 38 39 40 41 42 43 44 45 46 47 48 49 50
000
ASUS45 KCYS 271710
RWRWY

WYOMING REGIONAL WEATHER ROUNDUP
NATIONAL WEATHER SERVICE CHEYENNE WY
1100 AM MDT THU JUL 27 2017

NOTE:  "FAIR" INDICATES FEW OR NO CLOUDS BELOW 12,000 FEET
WITH NO SIGNIFICANT WEATHER AND/OR OBSTRUCTIONS TO VISIBILITY.

WYZ001-271800-
YELLOWSTONE NATIONAL PARK

CITY           SKY/WX    TMP DP  RH WIND       PRES   REMARKS
LK YELLOWSTONE   N/A     62  51  67 VRB6      30.40F
W YELLOWSTONE  NOT AVBL

$$
WYZ002>013-054>058-071-098>099-271800-
NORTHERN WYOMING

CITY           SKY/WX    TMP DP  RH WIND       PRES   REMARKS
JACKSON        PTSUNNY   64  52  63 CALM      30.33F
CODY           NOT AVBL
GREYBULL       FAIR      82  53  36 VRB5      30.09F
WORLAND        FAIR      78  55  44 VRB3      30.12S
SHERIDAN       PTSUNNY   76  58  53 N7        30.12R
BUFFALO        FAIR      81  54  39 N15       30.16R
GILLETTE       FAIR      83  58  42 SE14G25   30.10F
HULETT         CLOUDY    79  61  53 S14G21    30.12F
NEWCASTLE      PTSUNNY   73  61  64 SE20      30.15F

$$
WYZ014>020-022>026-101>103-271800-
CENTRAL WYOMING

CITY           SKY/WX    TMP DP  RH WIND       PRES   REMARKS
BIG PINEY      FAIR      72  47  40 VRB3      30.35S
PINEDALE       FAIR      72  43  35 N6        30.35F
DUBOIS         PTSUNNY   72  41  33 N9        30.32S
LANDER         FAIR      77  51  40 VRB3      30.20F
RIVERTON       FAIR      80  50  34 N6        30.21S
CASPER         FAIR      79  57  46 SW17G24   30.18F
DOUGLAS        FAIR      79  57  46 VRB7G17   30.18F

$$
WYZ021-027>030-104>119-271800-
SOUTHERN WYOMING

CITY           SKY/WX    TMP DP  RH WIND       PRES   REMARKS
EVANSTON       FAIR      72  51  47 W8G18     30.36S
KEMMERER         N/A     70  46  43 SW7       30.37F
FORT BRIDGER   FAIR      75  46  34 W10G18    30.38S
ROCK SPRINGS   FAIR      73  47  39 W9G16     30.33F
RAWLINS        FAIR      75  54  47 SW16      30.32F
SARATOGA       FAIR      73  52  46 CALM      30.33F
LARAMIE        FAIR      73  52  47 VRB6      30.34F
CHEYENNE       FAIR      72  58  61 S13       30.30F
TORRINGTON     FAIR      75  67  76 SE14      30.17F
PINE BLUFFS    FAIR      73  61  64 S9G18     30.26S

$$



USA.gov is the U.S. government's official web portal to all federal, state and local government web resources and services.